Barrow, AK

4:12 AM AKDT on September 21, 2017 (GMT -0800)
Wiley Post-Will Rogers Memorial

Weather History for PABR - January, 2013

Change the Weather History Date:

Thursday, January 3, 2013

  Actual Average Record
Temperature  
Mean Temperature -3 °F -12 °F  
Max Temperature 1 °F -5 °F 30 °F (2017)
Min Temperature -7 °F -18 °F -53 °F (1975)
Degree Days  
Heating Degree Days 68 77  
Month to date heating degree days 208 230  
Since 1 July heating degree days 7585 8439  
Cooling Degree Days 0 0  
Month to date cooling degree days 0 0  
Year to date cooling degree days 0 0  
Moisture  
Dew Point -6 °F    
Average Humidity 0    
Maximum Humidity 0    
Minimum Humidity 0    
Precipitation  
Precipitation 0.01 in 0.00 in 0.07 in (1957)
Month to date precipitation 0.01 0.01  
Year to date precipitation 0.01 0.01  
Snow  
Snow 0.50 in 0.10 in 0.80 in (1968)
Month to date snowfall 0.5 0.3  
Since 1 July snowfall 38.1 24.1  
Snow Depth 6.00 in    
Sea Level Pressure  
Sea Level Pressure 29.79 in    
Wind  
Wind Speed 16 mph (ENE)    
Max Wind Speed 21 mph    
Max Gust Speed 25 mph    
Visibility 6 miles    
Events Snow    
T = Trace of Precipitation, MM = Missing Value Source: NWS Daily Summary

Daily Weather History Graph

Daily Weather History Graph

Search for Another Location

Airport or City:

Trip Planner

Search our weather history database for the weather conditions in past years. The results will help you decide how hot, cold, wet, or windy it might be!

Date:

Astronomy

Dec. 31, 1969 Rise Set
Actual Time Sun does not set Sun does not set
Civil Twilight 11:40 AM AKST 3:23 PM AKST
Nautical Twilight 9:41 AM AKST 5:23 PM AKST
Astronomical Twilight 8:16 AM AKST 6:47 PM AKST
Moon 12:05 AM AKST (1/3) 11:39 AM AKST (1/3)
Length of Visible Light 3h 43m
Length of Day
0h 00m
Waning Gibbous, 64% of the Moon is Illuminated
Jan 3
Waning Gibbous
Jan 4
Last Quarter
Jan 11
New
Jan 18
First Quarter
Jan 26
Full

Hourly Weather History & Observations

Time (AKST) Temp. Windchill Dew Point Humidity Pressure Visibility Wind Dir Wind Speed Gust Speed Precip Events Conditions
12:09 AM -7.6 °F -29.8 °F - N/A% 29.76 in 1.2 mi NE 16.1 mph - 0.00 in Snow Light Snow
12:41 AM -7.6 °F -31.7 °F - N/A% 29.75 in 1.2 mi ENE 19.6 mph - 0.00 in Snow Light Snow
12:53 AM -7.1 °F -29.8 °F - N/A% 29.76 in 1.0 mi ENE 17.3 mph - 0.00 in Snow Light Snow
1:11 AM -7.6 °F -30.5 °F - N/A% 29.75 in 2.0 mi ENE 17.3 mph - 0.00 in Snow Light Snow
1:44 AM -7.6 °F -30.5 °F - N/A% 29.76 in 1.8 mi ENE 17.3 mph - 0.00 in Snow Light Snow
1:51 AM -7.6 °F -31.1 °F - N/A% 29.76 in 2.0 mi ENE 18.4 mph - 0.00 in Snow Light Snow
1:53 AM -7.1 °F -30.4 °F - N/A% 29.76 in 2.0 mi ENE 18.4 mph - 0.00 in Snow Light Snow
2:07 AM -7.6 °F -31.1 °F - N/A% 29.76 in 3.0 mi ENE 18.4 mph - 0.00 in Snow Light Snow
2:53 AM -7.1 °F -30.4 °F - N/A% 29.76 in 3.0 mi ENE 18.4 mph - 0.00 in Snow Light Snow
3:01 AM -7.6 °F -31.1 °F - N/A% 29.75 in 2.0 mi ENE 18.4 mph - 0.00 in Snow Light Snow
3:19 AM -7.6 °F -31.1 °F - N/A% 29.75 in 2.5 mi ENE 18.4 mph - 0.00 in Snow Light Snow
3:36 AM -7.6 °F -29.8 °F - N/A% 29.76 in 1.5 mi ENE 16.1 mph - 0.00 in Snow Light Snow
3:53 AM -7.1 °F -28.4 °F - N/A% 29.77 in 1.5 mi ENE 15.0 mph - 0.00 in Snow Light Snow
4:00 AM -5.8 °F -26.8 °F - N/A% 29.76 in 4.0 mi ENE 15.0 mph - 0.00 in Snow Light Snow
4:44 AM -5.8 °F -27.5 °F - N/A% 29.75 in 2.0 mi ENE 16.1 mph - 0.00 in Snow Light Snow
4:53 AM -6.0 °F -27.0 °F - N/A% 29.75 in 2.0 mi ENE 15.0 mph - 0.00 in Snow Light Snow
5:10 AM -5.8 °F -27.5 °F - N/A% 29.75 in 4.0 mi ENE 16.1 mph - 0.00 in Snow Light Snow
5:29 AM -5.8 °F -26.8 °F - N/A% 29.75 in 2.5 mi ENE 15.0 mph - 0.00 in Snow Light Snow
5:37 AM -5.8 °F -26.0 °F - N/A% 29.75 in 3.0 mi East 13.8 mph - 0.00 in Snow Light Snow
5:53 AM -7.1 °F -27.6 °F - N/A% 29.76 in 4.0 mi East 13.8 mph - 0.00 in Snow Light Snow
6:53 AM -7.1 °F -28.4 °F - N/A% 29.78 in 9.0 mi East 15.0 mph - 0.00 in Snow Light Snow
7:53 AM -6.0 °F -26.3 °F -11.9 °F 75% 29.78 in 8.0 mi East 13.8 mph - 0.00 in Snow Light Snow
8:53 AM -6.0 °F -27.0 °F -11.0 °F 79% 29.78 in 9.0 mi East 15.0 mph - 0.00 in Snow Light Snow
9:53 AM -4.0 °F -24.5 °F -9.0 °F 79% 29.80 in 9.0 mi East 15.0 mph - 0.00 in Snow Light Snow
10:53 AM -2.9 °F -22.4 °F -8.0 °F 79% 29.81 in 10.0 mi East 13.8 mph - 0.00 in   Overcast
11:53 AM -2.0 °F -21.9 °F -7.1 °F 79% 29.81 in 10.0 mi East 15.0 mph - N/A   Overcast
12:53 PM -0.9 °F -21.2 °F -6.0 °F 79% 29.83 in 10.0 mi East 16.1 mph - N/A   Overcast
1:39 PM -0.4 °F -19.9 °F -5.8 °F 78% 29.82 in 10.0 mi East 15.0 mph - N/A   Overcast
1:53 PM -0.0 °F -19.4 °F -5.1 °F 79% 29.83 in 10.0 mi East 15.0 mph - N/A   Overcast
2:53 PM 1.0 °F -18.0 °F -4.0 °F 79% 29.84 in 10.0 mi East 15.0 mph - N/A   Overcast
3:53 PM 1.0 °F -19.3 °F -4.0 °F 79% 29.83 in 10.0 mi East 17.3 mph - N/A   Overcast
4:53 PM -0.9 °F -21.9 °F -5.1 °F 83% 29.84 in 10.0 mi East 17.3 mph - N/A   Overcast
5:44 PM -0.4 °F -21.7 °F -5.8 °F 78% 29.83 in 9.0 mi East 18.4 mph - N/A   Scattered Clouds
5:53 PM -0.9 °F -21.9 °F -6.0 °F 79% 29.84 in 10.0 mi East 17.3 mph - N/A   Scattered Clouds
6:53 PM -0.9 °F -22.4 °F -5.1 °F 83% 29.83 in 9.0 mi ENE 18.4 mph - N/A   Scattered Clouds
7:53 PM -0.9 °F -23.0 °F -5.1 °F 83% 29.84 in 8.0 mi East 19.6 mph - N/A   Scattered Clouds
8:53 PM -0.9 °F -22.4 °F -5.1 °F 83% 29.83 in 10.0 mi East 18.4 mph - N/A   Clear
9:53 PM -0.9 °F -21.2 °F -5.1 °F 83% 29.84 in 10.0 mi East 16.1 mph - N/A   Clear
10:53 PM -2.0 °F -23.9 °F -6.0 °F 83% 29.85 in 9.0 mi East 18.4 mph - N/A   Clear
11:53 PM -0.9 °F -21.2 °F -6.0 °F 79% 29.86 in 10.0 mi East 16.1 mph - N/A   Clear